Time,TemperatureF,DewpointF,PressureIn,WindDirection,WindDirectionDegrees,WindSpeedMPH,WindSpeedGustMPH,Humidity,HourlyPrecipIn,Conditions,Clouds,dailyrainin,SolarRadiationWatts/m^2,SoftwareType,DateUTC
2013-08-18 00:02:00,72.0,67.0,-100.00,NE,52,2.0,4.0,85,0.00,,,0.00,0.000000,,2013-08-18 05:02:00,
2013-08-18 00:12:00,72.0,67.0,-100.00,NE,52,2.0,4.0,85,0.00,,,0.00,0.000000,,2013-08-18 05:12:00,
2013-08-18 00:22:00,72.0,67.0,-100.00,NE,52,2.0,4.0,85,0.00,,,0.00,0.000000,,2013-08-18 05:22:00,
2013-08-18 00:32:00,71.0,67.0,-100.00,NNE,33,2.0,4.0,86,0.00,,,0.00,0.000000,,2013-08-18 05:32:00,
2013-08-18 00:52:00,71.0,67.0,-100.00,NNE,33,2.0,4.0,86,0.00,,,0.00,0.000000,,2013-08-18 05:52:00,
2013-08-18 01:01:00,71.0,67.0,-100.00,NNE,33,2.0,4.0,86,0.00,,,0.00,0.000000,,2013-08-18 06:01:00,
2013-08-18 01:11:00,71.0,67.0,-100.00,NNE,33,2.0,4.0,86,0.00,,,0.00,0.000000,,2013-08-18 06:11:00,
2013-08-18 01:21:00,71.0,67.0,-100.00,NNE,33,2.0,4.0,86,0.00,,,0.00,0.000000,,2013-08-18 06:21:00,
2013-08-18 01:32:00,70.0,66.0,-100.00,NE,44,1.0,3.0,88,0.00,,,0.00,0.000000,,2013-08-18 06:32:00,
2013-08-18 01:52:00,70.0,66.0,-100.00,NE,44,1.0,3.0,88,0.00,,,0.00,0.000000,,2013-08-18 06:52:00,
2013-08-18 02:01:00,70.0,66.0,-100.00,NE,44,1.0,3.0,88,0.00,,,0.00,0.000000,,2013-08-18 07:01:00,
2013-08-18 02:11:00,70.0,66.0,-100.00,NE,44,1.0,3.0,88,0.00,,,0.00,0.000000,,2013-08-18 07:11:00,
2013-08-18 02:22:00,70.0,66.0,-100.00,NE,44,1.0,3.0,88,0.00,,,0.00,0.000000,,2013-08-18 07:22:00,
2013-08-18 02:32:00,70.0,67.0,-100.00,NE,48,2.0,4.0,89,0.00,,,0.00,0.000000,,2013-08-18 07:32:00,
2013-08-18 03:12:00,70.0,67.0,-100.00,NE,48,2.0,4.0,89,0.00,,,0.00,0.000000,,2013-08-18 08:12:00,
2013-08-18 03:21:00,70.0,67.0,-100.00,NE,48,2.0,4.0,89,0.00,,,0.00,0.000000,,2013-08-18 08:21:00,
2013-08-18 03:32:00,69.0,66.0,-100.00,NNE,26,1.0,4.0,89,0.00,,,0.00,0.000000,,2013-08-18 08:32:00,
2013-08-18 03:52:00,69.0,66.0,-100.00,NNE,26,1.0,4.0,89,0.00,,,0.00,0.000000,,2013-08-18 08:52:00,
2013-08-18 04:01:00,69.0,66.0,-100.00,NNE,26,1.0,4.0,89,0.00,,,0.00,0.000000,,2013-08-18 09:01:00,
2013-08-18 04:11:00,69.0,66.0,-100.00,NNE,26,1.0,4.0,89,0.00,,,0.00,0.000000,,2013-08-18 09:11:00,
2013-08-18 04:21:00,69.0,66.0,-100.00,NNE,26,1.0,4.0,89,0.00,,,0.00,0.000000,,2013-08-18 09:21:00,
2013-08-18 04:32:00,68.0,65.0,-100.00,ENE,60,1.0,3.0,90,0.00,,,0.00,0.000000,,2013-08-18 09:32:00,
2013-08-18 04:53:00,68.0,65.0,-100.00,ENE,60,1.0,3.0,90,0.00,,,0.00,0.000000,,2013-08-18 09:53:00,
2013-08-18 05:03:00,68.0,65.0,-100.00,ENE,60,1.0,3.0,90,0.00,,,0.00,0.000000,,2013-08-18 10:03:00,
2013-08-18 05:13:00,68.0,65.0,-100.00,ENE,60,1.0,3.0,90,0.00,,,0.00,0.000000,,2013-08-18 10:13:00,
2013-08-18 05:23:00,68.0,65.0,-100.00,ENE,60,1.0,3.0,90,0.00,,,0.00,0.000000,,2013-08-18 10:23:00,
2013-08-18 05:32:00,68.0,65.0,-100.00,NE,56,2.0,4.0,90,0.00,,,0.00,0.000000,,2013-08-18 10:32:00,
2013-08-18 05:52:00,68.0,65.0,-100.00,NE,56,2.0,4.0,90,0.00,,,0.00,0.000000,,2013-08-18 10:52:00,
2013-08-18 06:02:00,68.0,65.0,-100.00,NE,56,2.0,4.0,90,0.00,,,0.00,0.000000,,2013-08-18 11:02:00,
2013-08-18 06:11:00,68.0,65.0,-100.00,NE,56,2.0,4.0,90,0.00,,,0.00,0.000000,,2013-08-18 11:11:00,
2013-08-18 06:22:00,68.0,65.0,-100.00,NE,56,2.0,4.0,90,0.00,,,0.00,0.000000,,2013-08-18 11:22:00,
2013-08-18 06:52:00,68.0,65.0,-100.00,NE,54,1.0,4.0,90,0.00,,,0.00,0.000000,,2013-08-18 11:52:00,
2013-08-18 07:01:00,68.0,65.0,-100.00,NE,54,1.0,4.0,90,0.00,,,0.00,0.000000,,2013-08-18 12:01:00,
2013-08-18 07:11:00,68.0,65.0,-100.00,NE,54,1.0,4.0,90,0.00,,,0.00,0.000000,,2013-08-18 12:11:00,
2013-08-18 07:21:00,68.0,65.0,-100.00,NE,54,1.0,4.0,90,0.00,,,0.00,0.000000,,2013-08-18 12:21:00,
2013-08-18 07:31:00,68.0,65.0,-100.00,NE,54,1.0,4.0,90,0.00,,,0.00,0.000000,,2013-08-18 12:31:00,
2013-08-18 07:32:00,69.0,66.0,-100.00,ENE,61,2.0,5.0,89,0.00,,,0.00,45.000000,,2013-08-18 12:32:00,
2013-08-18 07:52:00,69.0,66.0,-100.00,ENE,61,2.0,5.0,89,0.00,,,0.00,45.000000,,2013-08-18 12:52:00,
2013-08-18 08:01:00,69.0,66.0,-100.00,ENE,61,2.0,5.0,89,0.00,,,0.00,45.000000,,2013-08-18 13:01:00,
2013-08-18 08:11:00,69.0,66.0,-100.00,ENE,61,2.0,5.0,89,0.00,,,0.00,45.000000,,2013-08-18 13:11:00,
2013-08-18 08:21:00,69.0,66.0,-100.00,ENE,61,2.0,5.0,89,0.00,,,0.00,45.000000,,2013-08-18 13:21:00,
2013-08-18 08:32:00,74.0,67.0,-100.00,NE,54,4.0,9.0,79,0.00,,,0.00,255.000000,,2013-08-18 13:32:00,
2013-08-18 08:52:00,74.0,67.0,-100.00,NE,54,4.0,9.0,79,0.00,,,0.00,255.000000,,2013-08-18 13:52:00,
2013-08-18 09:02:00,74.0,67.0,-100.00,NE,54,4.0,9.0,79,0.00,,,0.00,255.000000,,2013-08-18 14:02:00,
2013-08-18 09:11:00,74.0,67.0,-100.00,NE,54,4.0,9.0,79,0.00,,,0.00,255.000000,,2013-08-18 14:11:00,
2013-08-18 09:21:00,74.0,67.0,-100.00,NE,54,4.0,9.0,79,0.00,,,0.00,255.000000,,2013-08-18 14:21:00,
2013-08-18 09:32:00,78.0,66.0,-100.00,ENE,61,6.0,11.0,67,0.00,,,0.00,499.000000,,2013-08-18 14:32:00,
2013-08-18 09:53:00,78.0,66.0,-100.00,ENE,61,6.0,11.0,67,0.00,,,0.00,499.000000,,2013-08-18 14:53:00,
2013-08-18 10:01:00,78.0,66.0,-100.00,ENE,61,6.0,11.0,67,0.00,,,0.00,499.000000,,2013-08-18 15:01:00,
2013-08-18 10:11:00,78.0,66.0,-100.00,ENE,61,6.0,11.0,67,0.00,,,0.00,499.000000,,2013-08-18 15:11:00,
2013-08-18 10:22:00,78.0,66.0,-100.00,ENE,61,6.0,11.0,67,0.00,,,0.00,499.000000,,2013-08-18 15:22:00,
2013-08-18 10:32:00,80.0,65.0,-100.00,ENE,57,8.0,14.0,60,0.00,,,0.00,712.000000,,2013-08-18 15:32:00,
2013-08-18 10:54:00,80.0,65.0,-100.00,ENE,57,8.0,14.0,60,0.00,,,0.00,712.000000,,2013-08-18 15:54:00,
2013-08-18 11:03:00,80.0,65.0,-100.00,ENE,57,8.0,14.0,60,0.00,,,0.00,712.000000,,2013-08-18 16:03:00,
2013-08-18 11:13:00,80.0,65.0,-100.00,ENE,57,8.0,14.0,60,0.00,,,0.00,712.000000,,2013-08-18 16:13:00,
2013-08-18 11:23:00,80.0,65.0,-100.00,ENE,57,8.0,14.0,60,0.00,,,0.00,712.000000,,2013-08-18 16:23:00,
2013-08-18 11:32:00,82.0,64.0,-100.00,East,81,8.0,15.0,54,0.00,,,0.00,862.000000,,2013-08-18 16:32:00,
2013-08-18 11:52:00,82.0,64.0,-100.00,East,81,8.0,15.0,54,0.00,,,0.00,862.000000,,2013-08-18 16:52:00,
2013-08-18 12:02:00,82.0,64.0,-100.00,East,81,8.0,15.0,54,0.00,,,0.00,862.000000,,2013-08-18 17:02:00,
2013-08-18 12:13:00,82.0,64.0,-100.00,East,81,8.0,15.0,54,0.00,,,0.00,862.000000,,2013-08-18 17:13:00,
2013-08-18 12:23:00,82.0,64.0,-100.00,East,81,8.0,15.0,54,0.00,,,0.00,862.000000,,2013-08-18 17:23:00,
2013-08-18 12:32:00,85.0,64.0,-100.00,ENE,78,7.0,16.0,49,0.00,,,0.00,949.000000,,2013-08-18 17:32:00,
2013-08-18 12:52:00,85.0,64.0,-100.00,ENE,78,7.0,16.0,49,0.00,,,0.00,949.000000,,2013-08-18 17:52:00,
2013-08-18 13:02:00,85.0,64.0,-100.00,ENE,78,7.0,16.0,49,0.00,,,0.00,949.000000,,2013-08-18 18:02:00,
2013-08-18 13:12:00,85.0,64.0,-100.00,ENE,78,7.0,16.0,49,0.00,,,0.00,949.000000,,2013-08-18 18:12:00,
2013-08-18 13:21:00,85.0,64.0,-100.00,ENE,78,7.0,16.0,49,0.00,,,0.00,949.000000,,2013-08-18 18:21:00,
2013-08-18 13:52:00,86.0,63.0,-100.00,ENE,63,7.0,14.0,47,0.00,,,0.00,851.000000,,2013-08-18 18:52:00,
2013-08-18 14:01:00,86.0,63.0,-100.00,ENE,63,7.0,14.0,47,0.00,,,0.00,851.000000,,2013-08-18 19:01:00,
2013-08-18 14:11:00,86.0,63.0,-100.00,ENE,63,7.0,14.0,47,0.00,,,0.00,851.000000,,2013-08-18 19:11:00,
2013-08-18 14:22:00,86.0,63.0,-100.00,ENE,63,7.0,14.0,47,0.00,,,0.00,851.000000,,2013-08-18 19:22:00,
2013-08-18 14:31:00,86.0,63.0,-100.00,ENE,63,7.0,14.0,47,0.00,,,0.00,851.000000,,2013-08-18 19:31:00,
2013-08-18 14:32:00,87.0,62.0,-100.00,ENE,62,7.0,15.0,44,0.00,,,0.00,849.000000,,2013-08-18 19:32:00,
2013-08-18 14:52:00,87.0,62.0,-100.00,ENE,62,7.0,15.0,44,0.00,,,0.00,849.000000,,2013-08-18 19:52:00,
2013-08-18 15:02:00,87.0,62.0,-100.00,ENE,62,7.0,15.0,44,0.00,,,0.00,849.000000,,2013-08-18 20:02:00,
2013-08-18 15:12:00,87.0,62.0,-100.00,ENE,62,7.0,15.0,44,0.00,,,0.00,849.000000,,2013-08-18 20:12:00,
2013-08-18 15:22:00,87.0,62.0,-100.00,ENE,62,7.0,15.0,44,0.00,,,0.00,849.000000,,2013-08-18 20:22:00,
2013-08-18 15:32:00,88.0,62.0,-100.00,ENE,58,6.0,14.0,42,0.00,,,0.00,855.000000,,2013-08-18 20:32:00,
2013-08-18 15:52:00,88.0,62.0,-100.00,ENE,58,6.0,14.0,42,0.00,,,0.00,855.000000,,2013-08-18 20:52:00,
2013-08-18 16:01:00,88.0,62.0,-100.00,ENE,58,6.0,14.0,42,0.00,,,0.00,855.000000,,2013-08-18 21:01:00,
2013-08-18 16:11:00,88.0,62.0,-100.00,ENE,58,6.0,14.0,42,0.00,,,0.00,855.000000,,2013-08-18 21:11:00,
2013-08-18 16:22:00,88.0,62.0,-100.00,ENE,58,6.0,14.0,42,0.00,,,0.00,855.000000,,2013-08-18 21:22:00,
2013-08-18 16:32:00,87.0,62.0,-100.00,NE,37,5.0,11.0,43,0.00,,,0.00,613.000000,,2013-08-18 21:32:00,
2013-08-18 16:53:00,87.0,62.0,-100.00,NE,37,5.0,11.0,43,0.00,,,0.00,613.000000,,2013-08-18 21:53:00,
2013-08-18 17:03:00,87.0,62.0,-100.00,NE,37,5.0,11.0,43,0.00,,,0.00,613.000000,,2013-08-18 22:03:00,
2013-08-18 17:13:00,87.0,62.0,-100.00,NE,37,5.0,11.0,43,0.00,,,0.00,613.000000,,2013-08-18 22:13:00,
2013-08-18 17:23:00,87.0,62.0,-100.00,NE,37,5.0,11.0,43,0.00,,,0.00,613.000000,,2013-08-18 22:23:00,
2013-08-18 17:32:00,90.0,62.0,-100.00,NNE,30,3.0,8.0,40,0.00,,,0.00,566.000000,,2013-08-18 22:32:00,
2013-08-18 17:52:00,90.0,62.0,-100.00,NNE,30,3.0,8.0,40,0.00,,,0.00,566.000000,,2013-08-18 22:52:00,
2013-08-18 18:02:00,90.0,62.0,-100.00,NNE,30,3.0,8.0,40,0.00,,,0.00,566.000000,,2013-08-18 23:02:00,
2013-08-18 18:11:00,90.0,62.0,-100.00,NNE,30,3.0,8.0,40,0.00,,,0.00,566.000000,,2013-08-18 23:11:00,
2013-08-18 18:22:00,90.0,62.0,-100.00,NNE,30,3.0,8.0,40,0.00,,,0.00,566.000000,,2013-08-18 23:22:00,
2013-08-18 18:32:00,88.0,63.0,-100.00,NE,45,3.0,7.0,44,0.00,,,0.00,304.000000,,2013-08-18 23:32:00,
2013-08-18 18:52:00,88.0,63.0,-100.00,NE,45,3.0,7.0,44,0.00,,,0.00,304.000000,,2013-08-18 23:52:00,
2013-08-18 19:03:00,88.0,63.0,-100.00,NE,45,3.0,7.0,44,0.00,,,0.00,304.000000,,2013-08-19 00:03:00,
2013-08-18 19:11:00,88.0,63.0,-100.00,NE,45,3.0,7.0,44,0.00,,,0.00,304.000000,,2013-08-19 00:11:00,
2013-08-18 19:21:00,88.0,63.0,-100.00,NE,45,3.0,7.0,44,0.00,,,0.00,304.000000,,2013-08-19 00:21:00,
2013-08-18 19:32:00,83.0,65.0,-100.00,North,0,0.0,4.0,55,0.00,,,0.00,112.000000,,2013-08-19 00:32:00,
2013-08-18 19:52:00,83.0,65.0,-100.00,North,0,0.0,4.0,55,0.00,,,0.00,112.000000,,2013-08-19 00:52:00,
2013-08-18 20:02:00,83.0,65.0,-100.00,North,0,0.0,4.0,55,0.00,,,0.00,112.000000,,2013-08-19 01:02:00,
2013-08-18 20:11:00,83.0,65.0,-100.00,North,0,0.0,4.0,55,0.00,,,0.00,112.000000,,2013-08-19 01:11:00,
2013-08-18 20:22:00,83.0,65.0,-100.00,North,0,0.0,4.0,55,0.00,,,0.00,112.000000,,2013-08-19 01:22:00,
2013-08-18 20:32:00,75.0,67.0,-100.00,SE,126,0.0,0.0,75,0.00,,,0.00,4.000000,,2013-08-19 01:32:00,
2013-08-18 20:52:00,75.0,67.0,-100.00,SE,126,0.0,0.0,75,0.00,,,0.00,4.000000,,2013-08-19 01:52:00,
2013-08-18 21:06:00,75.0,67.0,-100.00,SE,126,0.0,0.0,75,0.00,,,0.00,4.000000,,2013-08-19 02:06:00,
2013-08-18 21:11:00,75.0,67.0,-100.00,SE,126,0.0,0.0,75,0.00,,,0.00,4.000000,,2013-08-19 02:11:00,
2013-08-18 21:21:00,75.0,67.0,-100.00,SE,126,0.0,0.0,75,0.00,,,0.00,4.000000,,2013-08-19 02:21:00,
2013-08-18 21:32:00,73.0,66.0,-100.00,NE,49,0.0,0.0,80,0.00,,,0.00,0.000000,,2013-08-19 02:32:00,
2013-08-18 21:52:00,73.0,66.0,-100.00,NE,49,0.0,0.0,80,0.00,,,0.00,0.000000,,2013-08-19 02:52:00,
2013-08-18 22:01:00,73.0,66.0,-100.00,NE,49,0.0,0.0,80,0.00,,,0.00,0.000000,,2013-08-19 03:01:00,
2013-08-18 22:11:00,73.0,66.0,-100.00,NE,49,0.0,0.0,80,0.00,,,0.00,0.000000,,2013-08-19 03:11:00,
2013-08-18 22:21:00,73.0,66.0,-100.00,NE,49,0.0,0.0,80,0.00,,,0.00,0.000000,,2013-08-19 03:21:00,
2013-08-18 22:32:00,74.0,66.0,-100.00,ENE,64,0.0,0.0,77,0.00,,,0.00,0.000000,,2013-08-19 03:32:00,
2013-08-18 22:53:00,74.0,66.0,-100.00,ENE,64,0.0,0.0,77,0.00,,,0.00,0.000000,,2013-08-19 03:53:00,
2013-08-18 23:03:00,74.0,66.0,-100.00,ENE,64,0.0,0.0,77,0.00,,,0.00,0.000000,,2013-08-19 04:03:00,
2013-08-18 23:12:00,74.0,66.0,-100.00,ENE,64,0.0,0.0,77,0.00,,,0.00,0.000000,,2013-08-19 04:12:00,
2013-08-18 23:23:00,74.0,66.0,-100.00,ENE,64,0.0,0.0,77,0.00,,,0.00,0.000000,,2013-08-19 04:23:00,
2013-08-18 23:32:00,72.0,67.0,-100.00,NNE,31,0.0,0.0,84,0.00,,,0.00,0.000000,,2013-08-19 04:32:00,